User: anonymous   Login
Location: Unspecified
(0.0000°N, 0.0000°E)
Time: 12:29:40
(UTC+00:00)
Language:

Interbol-2 - Orbit

View from above orbital plane
View from above orbital plane
View from above satellite
View from above satellite

Ground track
Ground track

The orbit data is extracted from the following two-line orbital elements,

1 24292U 96050B   17201.33862755 +.00000078 +00000-0 +00000-0 0  9994
2 24292 063.5476 197.2807 5206741 237.6941 297.7687 04.14706767316405
Epoch (UTC): 20 July 2017 08:07:37
Eccentricity: 0.5206741
inclination: 63.5476°
perigee height: 1466 km
apogee height: 18507 km
right ascension of ascending node: 197.2807°
argument of perigee: 237.6941°
revolutions per day: 4.14706767
mean anomaly at epoch: 297.7687°
orbit number at epoch: 31640

The dashed part of the orbit path shows where the satellite is in the earth's shadow,  

DLR